Location: Casteau
(50.5142°N, 4.0161°E)
Time: 03:16:18
(UTC+00:00)

COSMOS 2406 - Pass Details

Date: 18 September 2020
Orbit: 844 x 863 km, 71.0° (Epoch: 24 October)

Event Time Altitude Azimuth Distance (km) Brightness Sun altitude
Rises 20:46:06 0° 330° (NNW) 3,416 7.5 -26.5°
Reaches altitude 10° 20:48:33 10° 330° (NNW) 2,476 6.5 -26.8°
Maximum altitude 20:54:16 90° 57° (ENE) 853 3.1 -27.5°
Enters shadow 20:54:21 87° 144° (SE) 853 3.0 -27.5°
